Time,TemperatureF,DewpointF,PressureIn,WindDirection,WindDirectionDegrees,WindSpeedMPH,WindSpeedGustMPH,Humidity,HourlyPrecipIn,Conditions,Clouds,dailyrainin,SoftwareType,DateUTC
2013-05-18 00:02:00,25.8,25.1,29.72,WSW,252,6.0,11.0,97,0.00,CLR,,0.00,WeatherDisplay:10.37,2013-05-18 08:02:00,
2013-05-18 00:17:00,25.7,25.0,29.72,WSW,258,6.0,11.0,97,0.00,CLR,,0.00,WeatherDisplay:10.37,2013-05-18 08:17:00,
2013-05-18 00:32:00,25.4,24.7,29.73,WSW,255,7.0,12.0,97,0.00,CLR,,0.00,WeatherDisplay:10.37,2013-05-18 08:32:00,
2013-05-18 00:47:00,25.2,24.5,29.73,WSW,258,7.0,14.0,97,0.00,CLR,,0.00,WeatherDisplay:10.37,2013-05-18 08:47:00,
2013-05-18 01:02:00,24.9,24.2,29.74,West,261,8.0,13.0,97,0.00,CLR,,0.00,WeatherDisplay:10.37,2013-05-18 09:02:00,
2013-05-18 01:17:00,24.7,23.9,29.75,WSW,255,8.0,13.0,97,0.00,CLR,,0.00,WeatherDisplay:10.37,2013-05-18 09:17:00,
2013-05-18 01:32:00,24.7,23.9,29.75,West,259,9.0,13.0,97,0.00,CLR,,0.00,WeatherDisplay:10.37,2013-05-18 09:32:00,
2013-05-18 01:47:00,24.6,23.9,29.76,West,259,9.0,13.0,97,0.00,CLR,,0.00,WeatherDisplay:10.37,2013-05-18 09:47:00,
2013-05-18 02:02:00,24.5,23.8,29.76,WSW,257,7.0,14.0,97,0.00,CLR,,0.00,WeatherDisplay:10.37,2013-05-18 10:02:00,
2013-05-18 02:17:00,24.4,23.4,29.77,West,260,8.0,13.0,96,0.00,CLR,,0.00,WeatherDisplay:10.37,2013-05-18 10:17:00,
2013-05-18 02:32:00,24.3,23.3,29.78,West,261,7.0,14.0,96,0.00,CLR,,0.00,WeatherDisplay:10.37,2013-05-18 10:32:00,
2013-05-18 02:47:00,24.2,23.2,29.79,West,263,7.0,13.0,96,0.00,CLR,,0.00,WeatherDisplay:10.37,2013-05-18 10:47:00,
2013-05-18 03:02:00,24.0,23.1,29.80,West,269,8.0,13.0,96,0.00,CLR,,0.00,WeatherDisplay:10.37,2013-05-18 11:02:00,
2013-05-18 03:17:00,23.6,22.6,29.81,West,264,8.0,16.0,96,0.00,CLR,,0.00,WeatherDisplay:10.37,2013-05-18 11:17:00,
2013-05-18 03:32:00,23.3,22.3,29.81,West,269,9.0,16.0,96,0.00,CLR,,0.00,WeatherDisplay:10.37,2013-05-18 11:32:00,
2013-05-18 03:47:00,23.4,22.1,29.83,West,273,6.0,12.0,95,0.00,CLR,,0.00,WeatherDisplay:10.37,2013-05-18 11:47:00,
2013-05-18 04:02:00,22.9,21.4,29.83,West,265,8.0,15.0,94,0.00,CLR,,0.00,WeatherDisplay:10.37,2013-05-18 12:02:00,
2013-05-18 04:17:00,22.9,20.9,29.84,West,266,6.0,13.0,92,0.00,CLR,,0.00,WeatherDisplay:10.37,2013-05-18 12:17:00,
2013-05-18 04:32:00,22.5,20.0,29.84,West,265,9.0,16.0,90,0.00,CLR,,0.00,WeatherDisplay:10.37,2013-05-18 12:32:00,
2013-05-18 04:47:00,22.6,19.3,29.85,West,266,8.0,16.0,87,0.00,CLR,,0.00,WeatherDisplay:10.37,2013-05-18 12:47:00,
2013-05-18 05:02:00,22.5,18.6,29.85,West,259,8.0,14.0,85,0.00,CLR,,0.00,WeatherDisplay:10.37,2013-05-18 13:02:00,
2013-05-18 05:17:00,22.5,18.1,29.85,West,260,7.0,14.0,83,0.00,CLR,,0.00,WeatherDisplay:10.37,2013-05-18 13:17:00,
2013-05-18 05:32:00,22.1,17.2,29.86,West,260,9.0,15.0,81,0.00,CLR,,0.00,WeatherDisplay:10.37,2013-05-18 13:32:00,
2013-05-18 05:47:00,22.0,16.7,29.87,WSW,257,5.0,15.0,80,0.00,CLR,,0.00,WeatherDisplay:10.37,2013-05-18 13:47:00,
2013-05-18 06:02:00,21.9,16.6,29.87,WSW,255,7.0,12.0,80,0.00,CLR,,0.00,WeatherDisplay:10.37,2013-05-18 14:02:00,
2013-05-18 06:17:00,21.5,16.0,29.88,WSW,254,6.0,15.0,79,0.00,CLR,,0.00,WeatherDisplay:10.37,2013-05-18 14:17:00,
2013-05-18 06:32:00,21.2,15.4,29.88,WSW,258,8.0,14.0,78,0.00,CLR,,0.00,WeatherDisplay:10.37,2013-05-18 14:32:00,
2013-05-18 06:47:00,21.0,14.7,29.89,WSW,249,7.0,15.0,76,0.00,CLR,,0.00,WeatherDisplay:10.37,2013-05-18 14:47:00,
2013-05-18 07:02:00,21.1,14.7,29.89,WSW,251,8.0,15.0,76,0.00,CLR,,0.00,WeatherDisplay:10.37,2013-05-18 15:02:00,
2013-05-18 07:17:00,20.9,13.6,29.90,WSW,251,8.0,17.0,73,0.00,CLR,,0.00,WeatherDisplay:10.37,2013-05-18 15:17:00,
2013-05-18 07:32:00,21.0,13.4,29.91,West,260,7.0,20.0,72,0.00,CLR,,0.00,WeatherDisplay:10.37,2013-05-18 15:32:00,
2013-05-18 07:47:00,21.3,12.7,29.91,WSW,252,8.0,19.0,69,0.00,CLR,,0.00,WeatherDisplay:10.37,2013-05-18 15:47:00,
2013-05-18 08:02:00,21.7,13.1,29.92,West,259,8.0,15.0,69,0.00,CLR,,0.00,WeatherDisplay:10.37,2013-05-18 16:02:00,
2013-05-18 08:17:00,22.0,12.4,29.92,WSW,244,9.0,17.0,66,0.00,CLR,,0.00,WeatherDisplay:10.37,2013-05-18 16:17:00,
2013-05-18 08:32:00,22.1,12.2,29.93,WSW,258,8.0,18.0,65,0.00,CLR,,0.00,WeatherDisplay:10.37,2013-05-18 16:32:00,
2013-05-18 08:47:00,22.3,11.9,29.93,West,260,10.0,17.0,64,0.00,CLR,,0.00,WeatherDisplay:10.37,2013-05-18 16:47:00,
2013-05-18 09:02:00,22.5,11.8,29.94,WSW,252,9.0,15.0,63,0.00,CLR,,0.00,WeatherDisplay:10.37,2013-05-18 17:02:00,
2013-05-18 09:17:00,22.6,12.3,29.95,West,270,7.0,15.0,64,0.00,CLR,,0.00,WeatherDisplay:10.37,2013-05-18 17:17:00,
2013-05-18 09:32:00,22.6,11.9,29.95,West,262,8.0,15.0,63,0.00,CLR,,0.00,WeatherDisplay:10.37,2013-05-18 17:32:00,
2013-05-18 09:47:00,22.3,11.3,29.96,West,263,10.0,16.0,62,0.00,CLR,,0.00,WeatherDisplay:10.37,2013-05-18 17:47:00,
2013-05-18 10:02:00,22.4,11.4,29.96,West,261,10.0,16.0,62,0.00,CLR,,0.00,WeatherDisplay:10.37,2013-05-18 18:02:00,
2013-05-18 10:17:00,22.3,11.3,29.97,West,259,9.0,18.0,62,0.00,CLR,,0.00,WeatherDisplay:10.37,2013-05-18 18:17:00,
2013-05-18 10:32:00,22.1,11.4,29.98,WSW,249,9.0,18.0,63,0.00,CLR,,0.00,WeatherDisplay:10.37,2013-05-18 18:32:00,
2013-05-18 10:47:00,21.9,12.0,29.99,West,262,10.0,17.0,65,0.00,CLR,,0.00,WeatherDisplay:10.37,2013-05-18 18:47:00,
2013-05-18 11:02:00,21.4,12.5,29.99,West,266,8.0,21.0,68,0.00,CLR,,0.00,WeatherDisplay:10.37,2013-05-18 19:02:00,
2013-05-18 11:17:00,20.9,12.3,30.00,WSW,257,9.0,16.0,69,0.00,CLR,,0.00,WeatherDisplay:10.37,2013-05-18 19:17:00,
2013-05-18 11:32:00,21.4,13.1,30.00,West,266,9.0,14.0,70,0.00,CLR,,0.00,WeatherDisplay:10.37,2013-05-18 19:32:00,
2013-05-18 11:47:00,21.9,13.0,30.00,West,260,9.0,13.0,68,0.00,CLR,,0.00,WeatherDisplay:10.37,2013-05-18 19:47:00,
2013-05-18 12:02:00,22.5,13.6,30.00,West,262,5.0,14.0,68,0.00,CLR,,0.00,WeatherDisplay:10.37,2013-05-18 20:02:00,
2013-05-18 12:17:00,23.1,12.7,30.00,WSW,251,12.0,16.0,64,0.00,CLR,,0.00,WeatherDisplay:10.37,2013-05-18 20:17:00,
2013-05-18 12:32:00,23.4,11.9,30.01,WSW,249,12.0,16.0,61,0.00,CLR,,0.00,WeatherDisplay:10.37,2013-05-18 20:32:00,
2013-05-18 12:47:00,23.9,12.0,30.01,WSW,251,7.0,15.0,60,0.00,CLR,,0.00,WeatherDisplay:10.37,2013-05-18 20:47:00,
2013-05-18 13:02:00,24.1,11.4,30.01,WSW,251,8.0,15.0,58,0.00,CLR,,0.00,WeatherDisplay:10.37,2013-05-18 21:02:00,
2013-05-18 13:17:00,24.7,12.0,30.02,WSW,252,9.0,15.0,58,0.00,CLR,,0.00,WeatherDisplay:10.37,2013-05-18 21:17:00,
2013-05-18 13:32:00,25.0,11.5,30.02,WSW,254,9.0,18.0,56,0.00,CLR,,0.00,WeatherDisplay:10.37,2013-05-18 21:32:00,
2013-05-18 13:47:00,25.6,11.7,30.02,WSW,251,8.0,17.0,55,0.00,CLR,,0.00,WeatherDisplay:10.37,2013-05-18 21:47:00,
2013-05-18 14:02:00,26.0,11.2,30.02,West,274,5.0,18.0,53,0.00,CLR,,0.00,WeatherDisplay:10.37,2013-05-18 22:02:00,
2013-05-18 14:17:00,26.7,11.8,30.02,WSW,243,6.0,18.0,53,0.00,CLR,,0.00,WeatherDisplay:10.37,2013-05-18 22:17:00,
2013-05-18 14:32:00,27.3,12.4,30.02,WSW,258,6.0,16.0,53,0.00,CLR,,0.00,WeatherDisplay:10.37,2013-05-18 22:32:00,
2013-05-18 14:47:00,27.8,12.9,30.02,West,262,8.0,20.0,53,0.00,CLR,,0.00,WeatherDisplay:10.37,2013-05-18 22:47:00,
2013-05-18 15:02:00,28.1,12.7,30.03,West,266,9.0,18.0,52,0.00,CLR,,0.00,WeatherDisplay:10.37,2013-05-18 23:02:00,
2013-05-18 15:17:00,28.2,12.4,30.03,WSW,246,6.0,15.0,51,0.00,CLR,,0.00,WeatherDisplay:10.37,2013-05-18 23:17:00,
2013-05-18 15:32:00,28.1,12.3,30.04,West,267,8.0,17.0,51,0.00,CLR,,0.00,WeatherDisplay:10.37,2013-05-18 23:32:00,
2013-05-18 15:47:00,28.4,12.6,30.04,WSW,256,8.0,16.0,51,0.00,CLR,,0.00,WeatherDisplay:10.37,2013-05-18 23:47:00,
2013-05-18 16:02:00,28.9,15.2,30.05,West,265,8.0,18.0,56,0.00,CLR,,0.00,WeatherDisplay:10.37,2013-05-19 00:02:00,
2013-05-18 16:17:00,29.7,14.2,30.05,West,268,5.0,14.0,52,0.00,CLR,,0.00,WeatherDisplay:10.37,2013-05-19 00:17:00,
2013-05-18 16:32:00,30.4,13.5,30.06,West,272,8.0,16.0,49,0.00,CLR,,0.00,WeatherDisplay:10.37,2013-05-19 00:32:00,
2013-05-18 16:47:00,30.4,13.1,30.06,West,268,8.0,18.0,48,0.00,CLR,,0.00,WeatherDisplay:10.37,2013-05-19 00:47:00,
2013-05-18 17:02:00,30.9,12.5,30.07,West,270,8.0,20.0,46,0.00,CLR,,0.00,WeatherDisplay:10.37,2013-05-19 01:02:00,
2013-05-18 17:17:00,30.8,11.4,30.07,West,269,10.0,17.0,44,0.00,CLR,,0.00,WeatherDisplay:10.37,2013-05-19 01:17:00,
2013-05-18 17:32:00,31.2,11.8,30.07,West,264,7.0,15.0,44,0.00,CLR,,0.00,WeatherDisplay:10.37,2013-05-19 01:32:00,
2013-05-18 17:47:00,31.4,11.4,30.07,WSW,258,8.0,19.0,43,0.00,CLR,,0.00,WeatherDisplay:10.37,2013-05-19 01:47:00,
2013-05-18 18:02:00,31.8,12.3,30.07,West,262,9.0,20.0,44,0.00,CLR,,0.00,WeatherDisplay:10.37,2013-05-19 02:02:00,
2013-05-18 18:17:00,32.1,12.1,30.07,West,275,10.0,20.0,43,0.00,CLR,,0.00,WeatherDisplay:10.37,2013-05-19 02:17:00,
2013-05-18 18:32:00,32.0,11.5,30.07,West,265,7.0,20.0,42,0.00,CLR,,0.00,WeatherDisplay:10.37,2013-05-19 02:32:00,
2013-05-18 18:47:00,32.6,12.0,30.08,West,269,9.0,18.0,42,0.00,CLR,,0.00,WeatherDisplay:10.37,2013-05-19 02:47:00,
2013-05-18 19:02:00,32.3,10.6,30.08,West,262,12.0,17.0,40,0.00,CLR,,0.00,WeatherDisplay:10.37,2013-05-19 03:02:00,
2013-05-18 19:17:00,31.8,10.7,30.08,WSW,256,10.0,23.0,41,0.00,CLR,,0.00,WeatherDisplay:10.37,2013-05-19 03:17:00,
2013-05-18 19:32:00,31.9,10.8,30.08,West,266,9.0,17.0,41,0.00,CLR,,0.00,WeatherDisplay:10.37,2013-05-19 03:32:00,
2013-05-18 19:47:00,31.7,10.7,30.09,West,261,9.0,20.0,41,0.00,CLR,,0.00,WeatherDisplay:10.37,2013-05-19 03:47:00,
2013-05-18 20:02:00,32.1,11.0,30.10,WSW,257,13.0,22.0,41,0.00,CLR,,0.00,WeatherDisplay:10.37,2013-05-19 04:02:00,
2013-05-18 20:17:00,32.2,11.6,30.10,West,271,7.0,17.0,42,0.00,CLR,,0.00,WeatherDisplay:10.37,2013-05-19 04:17:00,
2013-05-18 20:32:00,32.2,12.2,30.11,West,268,10.0,18.0,43,0.00,CLR,,0.00,WeatherDisplay:10.37,2013-05-19 04:32:00,
2013-05-18 20:47:00,32.1,12.1,30.11,WSW,258,10.0,18.0,43,0.00,CLR,,0.00,WeatherDisplay:10.37,2013-05-19 04:47:00,
2013-05-18 21:02:00,32.0,12.5,30.12,West,263,7.0,19.0,44,0.00,CLR,,0.00,WeatherDisplay:10.37,2013-05-19 05:02:00,
2013-05-18 21:17:00,31.6,12.7,30.13,West,266,8.0,17.0,45,0.00,CLR,,0.00,WeatherDisplay:10.37,2013-05-19 05:17:00,
2013-05-18 21:32:00,31.2,12.8,30.14,West,269,7.0,15.0,46,0.00,CLR,,0.00,WeatherDisplay:10.37,2013-05-19 05:32:00,
2013-05-18 21:47:00,31.2,12.8,30.15,West,268,8.0,14.0,46,0.00,CLR,,0.00,WeatherDisplay:10.37,2013-05-19 05:47:00,
2013-05-18 22:02:00,30.9,13.0,30.16,West,266,8.0,15.0,47,0.00,CLR,,0.00,WeatherDisplay:10.37,2013-05-19 06:02:00,
2013-05-18 22:17:00,30.4,13.0,30.17,West,267,7.0,14.0,48,0.00,CLR,,0.00,WeatherDisplay:10.37,2013-05-19 06:17:00,
2013-05-18 22:32:00,30.0,13.1,30.17,West,266,7.0,13.0,49,0.00,CLR,,0.00,WeatherDisplay:10.37,2013-05-19 06:32:00,
2013-05-18 22:47:00,29.8,12.9,30.18,West,263,8.0,15.0,49,0.00,CLR,,0.00,WeatherDisplay:10.37,2013-05-19 06:47:00,
2013-05-18 23:02:00,29.5,13.2,30.18,West,261,8.0,13.0,50,0.00,CLR,,0.00,WeatherDisplay:10.37,2013-05-19 07:02:00,
2013-05-18 23:17:00,29.3,12.5,30.19,WSW,257,8.0,15.0,49,0.00,CLR,,0.00,WeatherDisplay:10.37,2013-05-19 07:17:00,
2013-05-18 23:32:00,29.1,12.7,30.20,West,259,7.0,13.0,50,0.00,CLR,,0.00,WeatherDisplay:10.37,2013-05-19 07:32:00,
2013-05-18 23:47:00,28.9,12.6,30.21,West,262,8.0,14.0,50,0.00,CLR,,0.00,WeatherDisplay:10.37,2013-05-19 07:47:00,